Simultaneous Nadir Overpasses (SNOs) Predictions

Prediction of SNOs between GOES-15 and TERRA Satellite Orbit:

Table of predicted SNOs for the next 14.0 days since TLE Epoch: 10/24/2025
Index Date Time (GOES-15) GOES-15 Lat,Lon TERRA Lat,Lon Distance(km) Time Diff (sec)
1 10/25/2025 17:00:51 -0.66, 61.58 -0.50, 62.32 85.18 80
2 10/26/2025 05:20:15 0.67, 61.47 1.48, 57.60 439.25 80
3 10/28/2025 05:03:27 0.68, 61.50 0.54, 62.29 89.74 80
4 10/28/2025 17:22:57 -0.68, 61.62 -1.54, 57.54 463.59 80
5 10/30/2025 17:00:49 -0.68, 61.66 -0.57, 62.23 64.78 80
6 10/31/2025 05:20:13 0.68, 61.56 1.54, 57.51 460.47 80
7 11/02/2025 05:03:25 0.68, 61.60 0.54, 62.19 68.13 80
8 11/02/2025 17:22:55 -0.68, 61.72 -1.59, 57.45 484.79 80
9 11/04/2025 17:00:46 -0.69, 61.76 -0.63, 62.15 42.96 80
10 11/05/2025 05:20:10 0.68, 61.67 1.58, 57.42 483.44 80
11 11/07/2025 05:03:21 0.69, 61.73 0.59, 62.11 43.89 80
